Location: Newark
(49.8753°N, 23.0797°E)
Time: 20:59:22
(UTC+00:00)

X-37B - Visible Passes

Search period start: 23 June 2021 00:00
Search period end: 03 July 2021 00:00
Orbit: 386 x 389 km, 45.0° (Epoch: 10 June)

Date Brightness Start Highest point End Pass type
(mag) Time Alt. Az. Time Alt. Az. Time Alt. Az.
23 Jun 2.8 00:49:39 11° S 00:49:39 11° S 00:50:02 10° S visible
23 Jun 1.7 20:35:01 10° SW 20:37:39 24° SSE 20:37:46 24° SSE visible
24 Jun 2.1 19:37:11 10° SSW 19:39:28 18° SSE 19:41:46 10° ESE visible
24 Jun 1.4 21:12:42 10° WSW 21:15:11 31° SSW 21:15:11 31° SSW visible
25 Jun 1.4 20:14:33 10° SW 20:17:23 29° S 20:19:36 14° ESE visible
25 Jun 2.5 21:50:45 10° WSW 21:51:53 18° WSW 21:51:53 18° WSW visible
26 Jun 1.3 20:52:28 10° WSW 20:55:23 33° S 20:56:02 30° SSE visible
27 Jun 1.3 19:54:14 10° WSW 19:57:08 33° S 20:00:01 10° ESE visible
27 Jun 2.2 21:30:39 10° WSW 21:32:18 21° SW 21:32:18 21° SW visible
28 Jun 1.5 20:32:17 10° WSW 20:35:09 31° S 20:36:14 24° SSE visible
29 Jun 1.4 19:33:59 10° WSW 19:36:55 33° S 19:39:50 10° ESE visible
29 Jun 2.4 21:10:39 10° WSW 21:12:24 19° SW 21:12:24 19° SW visible
30 Jun 1.8 20:12:11 10° WSW 20:14:54 26° SSW 20:16:18 19° SSE visible
01 Jul 2.7 20:50:54 10° WSW 20:52:27 14° SSW 20:52:27 14° SSW visible
02 Jul 2.3 19:52:11 10° WSW 19:54:36 20° SSW 19:56:22 13° SSE visible
